This is the latest recevied weather packets stored in our database for station/object ac2ev. If no packets are shown the sender has not sent any weather packets the latest 10 day(s).
| Time | Temp. | Humidity | Pressure | Rain* | Wind** | Luminosity | Snow |
|---|---|---|---|---|---|---|---|
| 1777831591 | 12.22° C | 48% | 1010.6 hPa | 0 mm | - | - | - |
| 1777831291 | 12.22° C | 51% | 1010.5 hPa | 0 mm | - | - | - |
| 1777830991 | 12.22° C | 51% | 1010.6 hPa | 0 mm | - | - | - |
| 1777830690 | 12.22° C | 53% | 1010.6 hPa | 0 mm | - | - | - |
| 1777830391 | 12.22° C | 53% | 1010.6 hPa | 0 mm | - | - | - |
| 1777830091 | 11.67° C | 53% | 1010.7 hPa | 0 mm | - | - | - |
| 1777829792 | 11.67° C | 54% | 1010.7 hPa | 0 mm | - | - | - |
| 1777829491 | 11.11° C | 57% | 1010.8 hPa | 0 mm | - | - | - |
| 1777829192 | 11.11° C | 58% | 1010.9 hPa | 0 mm | - | - | - |
| 1777828890 | 10.56° C | 58% | 1010.9 hPa | 0 mm | - | - | - |
| 1777828592 | 10.56° C | 58% | 1011 hPa | 0 mm | - | - | - |
| 1777828291 | 10.56° C | 58% | 1011.2 hPa | 0 mm | - | - | - |
| 1777827691 | 10.56° C | 59% | 1011.3 hPa | 0 mm | - | - | - |
| 1777827389 | 10.56° C | 59% | 1011.3 hPa | 0 mm | - | - | - |
| 1777827083 | 10° C | 59% | 1011.4 hPa | 0 mm | - | - | - |
| 1777826776 | 10.56° C | 58% | 1011.5 hPa | 0 mm | - | - | - |
| 1777826470 | 10.56° C | 57% | 1011.4 hPa | 0 mm | - | - | - |
| 1777826164 | 10.56° C | 56% | 1011.5 hPa | 0 mm | - | - | - |
| 1777825863 | 11.67° C | 53% | 1011.5 hPa | 0 mm | - | - | - |
| 1777825563 | 11.67° C | 52% | 1011.5 hPa | 0 mm | - | - | - |
| 1777825262 | 11.11° C | 51% | 1011.7 hPa | 0 mm | - | - | - |
| 1777824963 | 11.11° C | 51% | 1011.5 hPa | 0 mm | - | - | - |
| 1777824663 | 11.67° C | 50% | 1011.7 hPa | 0 mm | - | - | - |
| 1777824362 | 11.67° C | 53% | 1011.7 hPa | 0 mm | - | - | - |
| 1777824062 | 11.11° C | 53% | 1011.6 hPa | 0 mm | - | - | - |
* Rain latest hour (hover to see other rain measurements)
** Current wind speed in m/s (hover to see current wind gust speed)